Retour au catalogue

FENGYUN 1C DEB

ActifPO
NORAD 35159·DEBRIS·🇨🇳 China

Lancé May 10, 1999 depuis Taiyuan Satellite Launch Center

Loading…

Prochains Passages (prochaines 24 heures)

TLE

FraisSource: Space-Track

Époque: Sep 14, 2026, 05:10 UTC

1 35159U 99025DMP 26257.21544344  .00003956  00000-0  10624-2 0  9995
2 35159  98.8313 349.3119 0011775  72.9884 317.0335 14.48644005654650

Suivez FENGYUN 1C DEB en temps réel avec AllMySat

Download on the App Store